Change the Weather History Date:

Thursday, November 25, 2010

  Actual Average Record
Temperature  
Mean Temperature 32 °F 39 °F  
Max Temperature 39 °F 49 °F 66 °F (2001)
Min Temperature 24 °F 29 °F 12 °F (2013)
Degree Days  
Heating Degree Days 33 26  
Month to date heating degree days 551 563  
Since 1 July heating degree days 1005 1139  
Cooling Degree Days 0 0  
Month to date cooling degree days 0 0  
Year to date cooling degree days 911 672  
Moisture  
Dew Point 23 °F    
Average Humidity 68    
Maximum Humidity 92    
Minimum Humidity 32    
Precipitation  
Precipitation 0.02 in 0.11 in 2.52 in (1950)
Month to date precipitation 2.00 2.88  
Year to date precipitation 35.77 42.41  
Sea Level Pressure  
Sea Level Pressure 30.08 in    
Wind  
Wind Speed 0 mph (ESE)    
Max Wind Speed 7 mph    
Max Gust Speed 8 mph    
Visibility 9 miles    
Events Rain    
T = Trace of Precipitation, MM = Missing Value Source: NWS Daily Summary

Daily Weather History Graph

Daily Weather History Graph

Search for Another Location

Airport or City:

Trip Planner

Search our weather history database for the weather conditions in past years. The results will help you decide how hot, cold, wet, or windy it might be!

Date:

Astronomy

Nov. 25, 2010 Rise Set
Actual Time 6:56 AM EST 4:28 PM EST
Civil Twilight 6:25 AM EST 4:59 PM EST
Nautical Twilight 5:51 AM EST 5:33 PM EST
Astronomical Twilight 5:18 AM EST 6:06 PM EST
Moon 8:22 PM EST (11/25) 10:24 AM EST (11/25)
Length of Visible Light 10h 33m
Length of Day
9h 32m
Waning Gibbous, 83% of the Moon is Illuminated
Nov 25
Waning Gibbous
Nov 28
Last Quarter
Dec 5
New
Dec 13
First Quarter
Dec 21
Full

Hourly Weather History & Observations

Time (EST) Temp. Windchill Dew Point Humidity Pressure Visibility Wind Dir Wind Speed Gust Speed Precip Events Conditions
12:53 AM 26.1 °F - 18.0 °F 71% 30.20 in 10.0 mi Calm Calm - N/A   Clear
1:53 AM 26.1 °F - 18.0 °F 71% 30.20 in 10.0 mi Calm Calm - N/A   Clear
2:53 AM 25.0 °F - 18.0 °F 75% 30.21 in 10.0 mi Calm Calm - N/A   Clear
3:53 AM 24.1 °F - 19.0 °F 81% 30.21 in 10.0 mi Calm Calm - N/A   Clear
4:53 AM 26.1 °F - 19.0 °F 75% 30.21 in 10.0 mi Calm Calm - N/A   Clear
5:53 AM 28.0 °F - 21.0 °F 75% 30.20 in 10.0 mi Calm Calm - N/A   Mostly Cloudy
6:53 AM 28.9 °F - 21.9 °F 75% 30.21 in 10.0 mi Calm Calm - N/A   Overcast
7:53 AM 30.0 °F - 24.1 °F 79% 30.22 in 10.0 mi Calm Calm - N/A   Overcast
8:53 AM 32.0 °F - 19.9 °F 61% 30.24 in 10.0 mi Calm Calm - N/A   Overcast
9:53 AM 34.0 °F - 16.0 °F 48% 30.22 in 10.0 mi Calm Calm - N/A   Overcast
10:53 AM 36.0 °F 33.3 °F 12.9 °F 39% 30.18 in 10.0 mi North 3.5 mph - N/A   Clear
11:53 AM 37.0 °F - 10.0 °F 33% 30.16 in 10.0 mi Calm Calm - N/A   Clear
12:53 PM 37.0 °F - 12.0 °F 36% 30.14 in 10.0 mi Calm Calm - N/A   Scattered Clouds
1:53 PM 37.9 °F - 14.0 °F 38% 30.11 in 10.0 mi Calm Calm - N/A   Scattered Clouds
2:53 PM 37.9 °F - 15.1 °F 39% 30.08 in 10.0 mi Calm Calm - N/A   Partly Cloudy
3:53 PM 37.9 °F - 16.0 °F 41% 30.08 in 10.0 mi Calm Calm - N/A   Overcast
4:53 PM 37.0 °F - 23.0 °F 57% 30.05 in 10.0 mi Calm Calm - 0.00 in Rain Light Rain
5:53 PM 36.0 °F - 21.9 °F 57% 30.02 in 10.0 mi Calm Calm - 0.00 in   Clear
6:53 PM 36.0 °F - 26.1 °F 67% 29.99 in 10.0 mi Calm Calm - N/A   Mostly Cloudy
7:21 PM 35.6 °F - 28.4 °F 75% 29.98 in 10.0 mi Calm Calm - N/A   Overcast
7:34 PM 37.4 °F 33.8 °F 30.2 °F 75% 29.96 in 10.0 mi ESE 4.6 mph - N/A   Overcast
7:53 PM 37.9 °F - 30.9 °F 76% 29.96 in 10.0 mi Calm Calm - N/A   Overcast
8:10 PM 37.4 °F 34.9 °F 32.0 °F 81% 29.95 in 10.0 mi SE 3.5 mph - N/A   Overcast
8:53 PM 39.0 °F - 34.0 °F 82% 29.96 in 10.0 mi Calm Calm - N/A   Overcast
9:53 PM 37.9 °F 34.4 °F 34.0 °F 86% 29.91 in 6.0 mi ESE 4.6 mph - N/A   Overcast
10:53 PM 37.9 °F - 35.1 °F 89% 29.89 in 5.0 mi Calm Calm - N/A   Overcast
11:05 PM 37.4 °F - 35.6 °F 93% 29.90 in 5.0 mi Calm Calm - N/A   Overcast
11:23 PM 37.4 °F - 35.6 °F 93% 29.89 in 4.0 mi Calm Calm - N/A   Overcast
11:53 PM 37.9 °F - 37.0 °F 97% 29.87 in 3.0 mi Calm Calm - 0.01 in Rain Rain